Tracking 25612 objects as of 21-May-2022
HD Live streaming from Space Station
objects crossing your sky now

COSMOS 1275 DEB

Track COSMOS 1275 DEB now!
10-day predictions


NORAD ID: 42189
Int'l Code: 1981-053TD
Perigee: 919.9 km
Apogee: 1,106.8 km
Inclination: 83.0 °
Period: 105.3 minutes
Semi major axis: 7384 km
RCS: Unknown
Launch date: June 4, 1981
Source: Commonwealth of Independent States (former USSR) (CIS)
Launch site: PLESETSK MISSILE AND SPACE COMPLEX (PKMTR)

Note: This is SATELLITE DEBRIS
aabbcc
Your satellite tracking list
Your tracking list is empty




NASA's NSSDC Master Catalog

Two Line Element Set (TLE):
1 42189U 81053TD  22140.70412830  .00001316  00000-0  14460-2 0  9993
2 42189  83.0181 294.4284 0126562 209.6417 149.7523 13.68148805970866
Source of the keplerian elements: AFSPC